| time (UTC) | temp C | wind direction | speed KPH | gust KPH | rain 1hr cm | rain 24hr cm | rain mn cm | humidity % | barometer mb |
| 20260508171520 | 21 | 11 | 1.6 | 0.0 | 0.00 | 0.00 | 0.00 | 77 | 1010.6 |
| 20260508170016 | 20 | 93 | 1.6 | 0.0 | 0.00 | 0.00 | 0.00 | 77 | 1010.9 |
| 20260508164512 | 20 | 53 | 0.0 | 0.0 | 0.00 | 0.00 | 0.00 | 76 | 1011.3 |
| 20260508163017 | 20 | 61 | 0.0 | 0.0 | 0.00 | 0.00 | 0.00 | 76 | 1011.4 |
| 20260508161508 | 20 | 321 | 0.0 | 0.0 | 0.00 | 0.00 | 0.00 | 77 | 1011.5 |
| 20260508160004 | 19 | 31 | 0.0 | 0.0 | 0.00 | 0.00 | 0.00 | 77 | 1011.8 |
| 20260508154502 | 18 | 122 | 0.0 | 0.0 | 0.00 | 0.00 | 0.00 | 78 | 1012.0 |
| 20260508153002 | 18 | 151 | 1.6 | 0.0 | 0.00 | 0.00 | 0.00 | 77 | 1012.1 |
| 20260508151500 | 18 | 156 | 1.6 | 0.0 | 0.00 | 0.00 | 0.00 | 78 | 1012.1 |
| 20260508150100 | 18 | 135 | 1.6 | 0.0 | 0.00 | 0.00 | 0.00 | 77 | 1012.2 |
| 20260508144607 | 18 | 218 | 0.0 | 0.0 | 0.00 | 0.00 | 0.00 | 77 | 1012.0 |
| 20260508143100 | 18 | 63 | 1.6 | 0.0 | 0.00 | 0.00 | 0.00 | 78 | 1012.1 |
| 20260508141600 | 17 | 52 | 0.0 | 0.0 | 0.00 | 0.00 | 0.00 | 80 | 1011.9 |
| 20260508140053 | 17 | 153 | 1.6 | 0.0 | 0.00 | 0.00 | 0.00 | 80 | 1012.1 |
| 20260508134559 | 16 | 118 | 0.0 | 0.0 | 0.00 | 0.00 | 0.00 | 82 | 1012.1 |
| 20260508133048 | 16 | 108 | 0.0 | 0.0 | 0.00 | 0.00 | 0.00 | 82 | 1012.2 |
| 20260508131546 | 16 | 131 | 0.0 | 0.0 | 0.00 | 0.00 | 0.00 | 82 | 1012.7 |
| 20260508130044 | 16 | 108 | 0.0 | 0.0 | 0.00 | 0.00 | 0.00 | 82 | 1012.4 |
| 20260508124543 | 16 | 70 | 0.0 | 0.0 | 0.00 | 0.00 | 0.00 | 82 | 1012.4 |
| 20260508123051 | 15 | 70 | 0.0 | 0.0 | 0.00 | 0.00 | 0.00 | 83 | 1012.6 |
| 20260508121544 | 15 | 70 | 0.0 | 0.0 | 0.00 | 0.00 | 0.00 | 83 | 1012.8 |
| 20260508120044 | 15 | 70 | 0.0 | 0.0 | 0.00 | 0.00 | 0.00 | 84 | 1012.8 |
| 20260508114548 | 15 | 35 | 0.0 | 0.0 | 0.00 | 0.00 | 0.00 | 83 | 1013.1 |
| 20260508113045 | 15 | 16 | 0.0 | 0.0 | 0.00 | 0.00 | 0.00 | 83 | 1013.2 |
| 20260508111544 | 15 | 353 | 0.0 | 0.0 | 0.00 | 0.00 | 0.00 | 84 | 1013.3 |
| 20260508110039 | 15 | 35 | 0.0 | 0.0 | 0.00 | 0.00 | 0.00 | 84 | 1012.7 |
| 20260508104541 | 15 | 29 | 0.0 | 0.0 | 0.00 | 0.00 | 0.00 | 84 | 1012.6 |
| 20260508103040 | 15 | 18 | 0.0 | 0.0 | 0.00 | 0.00 | 0.00 | 83 | 1012.6 |
| 20260508101537 | 15 | 16 | 0.0 | 0.0 | 0.00 | 0.00 | 0.00 | 83 | 1013.1 |
| 20260508100036 | 16 | 278 | 0.0 | 0.0 | 0.00 | 0.00 | 0.00 | 82 | 1013.3 |
| 20260508094551 | 16 | 354 | 0.0 | 0.0 | 0.00 | 0.00 | 0.00 | 80 | 1013.3 |
| 20260508093037 | 16 | 357 | 0.0 | 0.0 | 0.00 | 0.00 | 0.00 | 80 | 1013.3 |
| 20260508091540 | 16 | 35 | 0.0 | 0.0 | 0.00 | 0.00 | 0.00 | 81 | 1013.1 |
| 20260508090034 | 15 | 35 | 0.0 | 0.0 | 0.00 | 0.00 | 0.00 | 80 | 1012.9 |
| 20260508084534 | 15 | 35 | 0.0 | 0.0 | 0.00 | 0.00 | 0.00 | 80 | 1012.7 |
| 20260508083034 | 15 | 35 | 0.0 | 0.0 | 0.00 | 0.00 | 0.00 | 80 | 1012.9 |
| 20260508081556 | 15 | 35 | 0.0 | 0.0 | 0.00 | 0.00 | 0.00 | 81 | 1012.9 |
| 20260508080037 | 15 | 35 | 0.0 | 0.0 | 0.00 | 0.00 | 0.00 | 81 | 1012.9 |
| 20260508074530 | 15 | 35 | 0.0 | 0.0 | 0.00 | 0.00 | 0.00 | 82 | 1012.7 |
| 20260508073028 | 15 | 358 | 0.0 | 0.0 | 0.00 | 0.00 | 0.00 | 82 | 1012.7 |
| 20260508071537 | 15 | 358 | 0.0 | 0.0 | 0.00 | 0.00 | 0.00 | 83 | 1012.7 |
| 20260508070022 | 15 | 326 | 0.0 | 0.0 | 0.00 | 0.00 | 0.00 | 83 | 1013.2 |
| 20260508064521 | 15 | 326 | 0.0 | 0.0 | 0.00 | 0.00 | 0.00 | 84 | 1013.2 |
| 20260508063031 | 15 | 326 | 0.0 | 0.0 | 0.00 | 0.00 | 0.00 | 85 | 1013.7 |
| 20260508061519 | 15 | 326 | 0.0 | 0.0 | 0.00 | 0.00 | 0.00 | 84 | 1014.1 |
| 20260508060017 | 15 | 326 | 0.0 | 0.0 | 0.00 | 0.00 | 0.00 | 83 | 1013.6 |
| 20260508054517 | 15 | 326 | 0.0 | 0.0 | 0.00 | 0.00 | 0.00 | 83 | 1013.6 |
| 20260508053016 | 15 | 326 | 0.0 | 0.0 | 0.00 | 0.00 | 0.00 | 83 | 1013.9 |
| 20260508051513 | 15 | 326 | 0.0 | 0.0 | 0.00 | 0.00 | 0.00 | 83 | 1013.6 |
| 20260508050011 | 15 | 327 | 0.0 | 0.0 | 0.00 | 0.00 | 0.00 | 83 | 1013.5 |
| 20260508044511 | 15 | 327 | 0.0 | 0.0 | 0.00 | 0.00 | 0.00 | 83 | 1014.4 |
| 20260508043012 | 15 | 76 | 0.0 | 0.0 | 0.00 | 0.00 | 0.00 | 83 | 1013.5 |
| 20260508041512 | 15 | 99 | 0.0 | 0.0 | 0.00 | 0.00 | 0.00 | 83 | 1013.6 |
| 20260508040010 | 15 | 62 | 0.0 | 0.0 | 0.00 | 0.00 | 0.00 | 81 | 1014.0 |
| 20260508034510 | 15 | 62 | 0.0 | 0.0 | 0.00 | 0.00 | 0.00 | 81 | 1014.5 |
| 20260508033009 | 15 | 62 | 0.0 | 0.0 | 0.00 | 0.00 | 0.00 | 80 | 1014.4 |
| 20260508031509 | 15 | 62 | 0.0 | 0.0 | 0.00 | 0.00 | 0.00 | 80 | 1014.9 |
| 20260508030008 | 15 | 62 | 0.0 | 0.0 | 0.00 | 0.00 | 0.00 | 78 | 1014.0 |
| 20260508024507 | 16 | 37 | 0.0 | 0.0 | 0.00 | 0.00 | 0.00 | 77 | 1013.6 |
| 20260508023008 | 16 | 64 | 0.0 | 0.0 | 0.00 | 0.00 | 0.00 | 77 | 1013.2 |
| 20260508021507 | 16 | 64 | 0.0 | 0.0 | 0.00 | 0.00 | 0.00 | 76 | 1012.3 |
| 20260508020006 | 16 | 99 | 0.0 | 0.0 | 0.00 | 0.00 | 0.00 | 75 | 1012.6 |
| 20260508014508 | 16 | 44 | 1.6 | 0.0 | 0.00 | 0.00 | 0.00 | 75 | 1012.6 |
| 20260508013004 | 16 | 132 | 0.0 | 0.0 | 0.00 | 0.00 | 0.00 | 74 | 1012.5 |
| 20260508011504 | 17 | 88 | 1.6 | 0.0 | 0.00 | 0.00 | 0.00 | 72 | 1012.3 |
| 20260508010002 | 17 | 56 | 1.6 | 0.0 | 0.00 | 0.00 | 0.00 | 71 | 1012.9 |
| 20260508004500 | 17 | 30 | 1.6 | 0.0 | 0.00 | 0.00 | 0.00 | 70 | 1013.2 |
| 20260508003107 | 17 | 116 | 1.6 | 0.0 | 0.00 | 0.00 | 0.00 | 69 | 1013.0 |
| 20260508001604 | 17 | 102 | 1.6 | 0.0 | 0.00 | 0.00 | 0.00 | 69 | 1013.6 |
| 20260508000059 | 18 | 50 | 1.6 | 0.0 | 0.00 | 0.00 | 0.00 | 68 | 1014.0 |
| 20260507234559 | 18 | 19 | 0.0 | 0.0 | 0.00 | 0.00 | 0.00 | 68 | 1014.2 |
| 20260507233100 | 18 | 52 | 1.6 | 0.0 | 0.00 | 0.00 | 0.00 | 66 | 1014.1 |
| 20260507231559 | 18 | 51 | 0.0 | 0.0 | 0.00 | 0.00 | 0.00 | 69 | 1014.0 |
| 20260507230104 | 18 | 36 | 1.6 | 0.0 | 0.00 | 0.00 | 0.00 | 67 | 1014.1 |
| 20260507224600 | 18 | 358 | 1.6 | 0.0 | 0.00 | 0.00 | 0.00 | 68 | 1014.0 |
| 20260507223057 | 18 | 45 | 1.6 | 0.0 | 0.00 | 0.00 | 0.00 | 67 | 1014.3 |
| 20260507221555 | 18 | 48 | 1.6 | 0.0 | 0.00 | 0.00 | 0.00 | 67 | 1014.3 |
| 20260507220055 | 18 | 7 | 3.2 | 0.0 | 0.00 | 0.00 | 0.00 | 68 | 1014.6 |
| 20260507214605 | 18 | 41 | 3.2 | 0.0 | 0.00 | 0.00 | 0.00 | 69 | 1014.8 |
| 20260507213056 | 18 | 1 | 3.2 | 0.0 | 0.00 | 0.00 | 0.00 | 67 | 1014.9 |
| 20260507211553 | 18 | 14 | 1.6 | 0.0 | 0.00 | 0.00 | 0.00 | 71 | 1014.6 |
| 20260507210057 | 17 | 23 | 1.6 | 0.0 | 0.00 | 0.00 | 0.00 | 70 | 1014.8 |
| 20260507204548 | 17 | 44 | 1.6 | 0.0 | 0.00 | 0.00 | 0.00 | 71 | 1015.0 |
| 20260507203103 | 17 | 39 | 1.6 | 0.0 | 0.00 | 0.00 | 0.00 | 69 | 1015.2 |
| 20260507201556 | 17 | 31 | 3.2 | 0.0 | 0.00 | 0.00 | 0.00 | 70 | 1015.7 |
| 20260507194543 | 17 | 49 | 1.6 | 0.0 | 0.00 | 0.00 | 0.00 | 71 | 1016.0 |
| 20260507193047 | 17 | 36 | 3.2 | 0.0 | 0.00 | 0.00 | 0.00 | 71 | 1016.1 |
| 20260507191541 | 17 | 88 | 3.2 | 0.0 | 0.00 | 0.00 | 0.00 | 72 | 1016.1 |
| 20260507190041 | 16 | 52 | 3.2 | 0.0 | 0.00 | 0.00 | 0.00 | 71 | 1016.2 |
| 20260507184546 | 16 | 74 | 3.2 | 0.0 | 0.00 | 0.00 | 0.00 | 73 | 1015.7 |
| 20260507183041 | 16 | 64 | 3.2 | 0.0 | 0.00 | 0.00 | 0.00 | 72 | 1016.2 |
| 20260507181538 | 16 | 62 | 3.2 | 0.0 | 0.00 | 0.00 | 0.00 | 72 | 1016.2 |
| 20260507180040 | 17 | 85 | 3.2 | 0.0 | 0.00 | 0.00 | 0.00 | 73 | 1016.3 |
| 20260507174539 | 17 | 29 | 3.2 | 0.0 | 0.00 | 0.00 | 0.00 | 73 | 1016.6 |
| 20260507173134 | 16 | 14 | 4.8 | 0.0 | 0.00 | 0.00 | 0.00 | 78 | 1016.9 |